Voltar ao catálogo

STARLINK-34202

AtivoComunicaçõesVLEO
NORAD 64174·PAYLOAD·🇺🇸 United States

Lançado May 28, 2025 de Cape Canaveral Space Force Station

Loading…

Próximas Passagens (próximas 24 horas)

TLE

AtualizadoSource: CelesTrak SupGP

Época: Sep 15, 2026, 02:57 UTC

1 64174C 25113E   26258.12340278  .00014182  00000+0  41889-3 0  2580
2 64174  53.1577 290.7472 0001151  93.3948 319.5043 15.34391528    14

Acompanhe STARLINK-34202 em tempo real com AllMySat

Download on the App Store